Content
SEND FEEDBACK

Daily
Averages
Monthly
Summary
Philippines

BAGUMBAYAN, PHILIPPINES


Home > Asia > Philippines
Elevation: 49 feet     Latitude: 14 31N     Longitude: 121 00E

WEATHER
 
SELECT A DAY
Number of Records: 176,327;   Date Range: 7/1/96 - 9/29/14
 
SHARE

PRINT THIS DATA

[ ← Previous Day ]
WEATHER ALMANAC - MAY 22, 2013
[ Next Day → ]
[ °C ]   °F
Weather ElementAverageHighLow
Temperature86.8 °F95 °F (1:00 pm)80.6 °F (5:00 am)
Dewpoint77.5 °F79 °F (8:00 am)73.4 °F (10:00 am)
Humidity73.6 %94 % (5:00 am)50 % (2:00 pm)
Barometer29.82 in29.90 in (11:00 pm)29.74 in (3:00 pm)
Wind Speed5.1 mph13.8 mph (3:00 pm)
Wind Gust17.3 mph (1:00 pm)
Weather ElementAverage
Visibility6.1 mi
Wind DirectionSE (130 °)

Weather ElementTotal
Precipitation---
Cooling Degree Days22.8 (Base 65)
Growing Degree Days37.8 (Base 50)
Averaged from 31 records on May 22, 2013
WEATHER CONDITIONS BREAKOUT
WIND DIRECTION BREAKOUT
WEATHER BY HOUR - MAY 22, 2013
[ °C ]   °F
Local TimeTemperatureDewpointHumidityBarometerVisibilityWind DirectionWind SpeedGust SpeedPrecipitationEventsConditions
1:00 AM82.4 °F78.8 °F89 %29.86 in6.2 miSSE (160°)3.5 mphPartly Cloudy
2:00 AM82.0 °F78.0 °F85 %29.84 in6.0 miSSE (150°)2.2 mphHaze
2:00 AM82.4 °F78.8 °F89 %29.83 in6.2 miVariable2.3 mphPartly Cloudy
3:00 AM82.4 °F78.8 °F89 %29.80 in6.2 miVariable2.3 mphPartly Cloudy
4:00 AM82.4 °F78.8 °F89 %29.80 in6.2 miVariable2.3 mphPartly Cloudy
5:00 AM81.0 °F78.0 °F88 %29.82 in6.0 miCalmHaze
5:00 AM80.6 °F78.8 °F94 %29.80 in5.6 miVariable1.2 mphScattered Clouds
6:00 AM80.6 °F78.8 °F94 %29.83 in5.6 miVariable1.2 mphPartly Cloudy
7:00 AM84.2 °F78.8 °F84 %29.83 in5.6 miVariable2.3 mphPartly Cloudy
8:00 AM88.0 °F79.0 °F69 %29.83 in6.0 miSE (130°)4.5 mphHaze
8:00 AM87.8 °F78.8 °F75 %29.83 in6.2 miSE (140°)4.6 mphPartly Cloudy
9:00 AM89.6 °F77.0 °F66 %29.83 in6.2 miVariable3.5 mphPartly Cloudy
10:00 AM91.4 °F73.4 °F55 %29.83 in6.2 miSW (220°)4.6 mphPartly Cloudy
11:00 AM91.0 °F78.0 °F58 %29.82 in6.0 miWest (280°)6.7 mphHaze
11:00 AM91.4 °F77.0 °F63 %29.80 in6.2 miWest (280°)6.9 mphScattered Clouds
12:00 PM91.4 °F77.0 °F63 %29.80 in6.2 miWest (270°)6.9 mphPartly Cloudy
1:00 PM95.0 °F75.2 °F53 %29.77 in6.2 miVariable5.8 mph17.3 mphPartly Cloudy
2:00 PM93.0 °F76.0 °F50 %29.78 in6.0 miWest (270°)11.2 mphHaze
2:00 PM95.0 °F75.2 °F53 %29.77 in6.2 miVariable5.8 mph17.3 mphPartly Cloudy
3:00 PM89.6 °F78.8 °F70 %29.74 in6.2 miWSW (240°)13.8 mphScattered Clouds
4:00 PM89.6 °F78.8 °F70 %29.74 in6.2 miSW (220°)9.2 mphScattered Clouds
5:00 PM89.0 °F77.0 °F60 %29.77 in6.0 miSW (220°)6.7 mphHaze
5:00 PM87.8 °F77.0 °F70 %29.77 in6.2 miSW (220°)8.1 mphMostly Cloudy
6:00 PM87.8 °F77.0 °F70 %29.77 in6.2 miWSW (250°)11.5 mphScattered Clouds
7:00 PM87.8 °F78.8 °F75 %29.80 in6.2 miWSW (250°)9.2 mphScattered Clouds
8:00 PM85.0 °F78.0 °F75 %29.86 in6.0 miESE (120°)4.5 mphPartly Cloudy
8:00 PM84.2 °F78.8 °F84 %29.86 in6.2 miESE (120°)4.6 mphScattered Clouds
9:00 PM84.2 °F77.0 °F79 %29.86 in6.2 miENE (70°)6.9 mphScattered Clouds
10:00 PM84.2 °F73.4 °F70 %29.89 in6.2 miVariable2.3 mphScattered Clouds
11:00 PM85.0 °F78.0 °F73 %29.90 in6.0 miWNW (290°)2.2 mphHaze
11:00 PM84.2 °F77.0 °F79 %29.89 in6.2 miVariable2.3 mphMostly Cloudy
Hourly data recorded from RPLL, located miles away from Bagumbayan, Philippines







STORIES FROM OUR PARTNERS